Regional Weather Roundup
Issued by NWS

Home | Current Version | Previous Version | Text Only | Print | Product List | Glossary Off
Versions: 1 2 3 4 5 6 7 8 9 10 11 12 13 14 15 16 17 18 19 20 21 22 23 24 25 26 27 28 29 30 31 32 33 34 35 36 37 38 39 40 41 42 43 44 45 46 47 48 49 50

000
ASUS43 KMPX 020310
RWRMN
WEATHER ROUNDUP FOR MINNESOTA
NATIONAL WEATHER SERVICE TWIN CITIES/CHANHASSEN MN
900 PM CST SUN MAR 01 2015


NOTE: "FAIR" INDICATES FEW OR NO CLOUDS BELOW 12,000 FEET WITH NO
SIGNIFICANT WEATHER AND/OR OBSTRUCTIONS TO VISIBILITY. N/A MEANS
CURRENT SKY AND/OR WEATHER CONDITIONS ARE NOT AVAILABLE.

MNZ060>063-068>070-020400-
   Twin Cities Metro

CITY           SKY/WX    TMP DP  RH WIND       PRES   REMARKS
TWIN CITIES    MOCLDY    24  12  60 W18G25    30.30R WCI  10
ST PAUL        PTCLDY    25  14  63 NW20G25   30.32R WCI  11
CRYSTAL        MOCLDY    24  13  62 W16G23    30.30R WCI  11
BLAINE         MOCLDY    25  16  68 W21G28    30.29R WCI  10
LAKEVILLE      CLEAR     19  14  79 W10       30.31R WCI   8
EDEN PRAIRIE   MOCLDY    24  14  65 NW15G25   30.30R WCI  11
SOUTH ST PAUL  MOCLDY    26  15  63 W18G25    30.30S WCI  12
LAKE ELMO      MOCLDY    25  16  68 W13G18    30.30R WCI  13
$$
MNZ001>005-007-008-013>017-022>024-027-028-020400-
   Northwest Minnesota

CITY           SKY/WX    TMP DP  RH WIND       PRES   REMARKS
BEMIDJI        CLEAR      8   5  86 W7        30.26R WCI  -3
HALLOCK        CLEAR      9   3  78 SW9       30.28R WCI  -5
ROSEAU         CLEAR      9   1  72 SW7       30.25R WCI  -3
WARROAD        PTCLDY     9   3  78 SW8       30.24R WCI  -4
THIEF RVR FALL CLEAR      9   7  92 W8        30.29S WCI  -4
CROOKSTON      CLEAR      7   1  78 W8        30.33S WCI  -6
FOSSTON        CLEAR     -4  -8  84 CALM      30.30R
DETROIT LAKES  CLEAR     12   9  85 W8        30.32R WCI   1
MOORHEAD       CLEAR     10   9  92 W7        30.37R WCI   0
PARK RAPIDS    CLEAR      2  -2  83 W7        30.28R WCI -11
MAHNOMEN       FAIR       6   4  88 W6        30.31R WCI  -4
$$
MNZ006-009>011-018-025>026-020400-
   North Central Minnesota

CITY           SKY/WX    TMP DP  RH WIND       PRES   REMARKS
BAUDETTE       PTCLDY    11   3  70 W10       30.20R WCI  -3
FLAG ISLAND    PTCLDY    12   5  73 W8        30.19S WCI   1
INTL FALLS     PTCLDY    11   4  73 W8        30.19R WCI  -1
WASKISH        CLEAR      7   3  85 SW9       30.25R WCI  -7
BIG FORK       PTCLDY    12   7  79 W7        30.22R WCI   2
LONGVILLE      CLEAR     12   7  79 NW9G16    30.27R WCI   0
GRAND RAPIDS   CLOUDY    12   7  79 NW13G18   30.22R WCI  -3
CRANE LAKE     PTCLDY    12   7  79 W3        30.20R
ORR            PTCLDY    12   7  79 W6        30.16R WCI   3
COOK           CLOUDY    12   7  79 W10       30.19R WCI  -1
WALKER         FAIR      10   5  79 W7        30.27R WCI  -1
$$
MNZ012-019>021-037-020400-
   Northeast Minnesota

CITY           SKY/WX    TMP DP  RH WIND       PRES   REMARKS
DULUTH         PTCLDY    18   7  62 NW17G25   30.17R WCI   3
ELY            MOCLDY    14   9  79 W8        30.13R WCI   3
HIBBING        CLOUDY    14   5  67 W10       30.20R WCI   1
EVELETH        MOCLDY    16   7  67 W14       30.19R WCI   1
DULUTH HARBOR  MOCLDY    21  12  68 W13       30.24R WCI   9
SILVER BAY     PTCLDY    18   5  57 W3        30.13R
GRAND MARAIS     N/A     18   4  54 W8        30.13R WCI   8
G MARAIS ARPRT PTCLDY    10   0  61 W15G28    30.03R WCI  -6
$$
MNZ029>031-032-039>041-046>048-054>057-064-020400-
   West Central Minnesota

CITY           SKY/WX    TMP DP  RH WIND       PRES   REMARKS
FERGUS FALLS   PTCLDY    10   7  85 NW5       30.39R WCI   2
MORRIS         CLOUDY    16  10  79 W8        30.36R WCI   5
ALEXANDRIA     CLEAR     13   7  77 NW9       30.32R WCI   1
ELBOW LAKE     CLOUDY    17  11  80 NW7       30.35R WCI   7
WADENA         CLEAR     10   7  85 NW7       30.30R WCI   0
APPLETON       PTCLDY    12   9  85 W8        30.39R WCI   1
BENSON         CLEAR     16  10  79 NW12      30.37R WCI   3
ORTONVILLE     CLEAR     18   9  68 NW8       30.39R WCI   7
MADISON        CLEAR     18  12  79 W8        30.39S WCI   7
WILLMAR        FAIR      18  10  73 W9        30.36R WCI   6
$$
MNZ033>034-036-042>043-049>051-058-059-020400-
   Central Minnesota

CITY           SKY/WX    TMP DP  RH WIND       PRES   REMARKS
ST CLOUD       CLOUDY    20  10  65 W15       30.31R WCI   6
SAUK CENTRE    FAIR      16  10  80 NW9       30.33R WCI   4
PAYNESVILLE    CLEAR     14  10  84 SW9       30.34R WCI   2
PINE RIVER     CLEAR     12   9  85 W6        30.30R WCI   3
BRAINERD       PTCLDY    15   8  73 NW10      30.29R WCI   2
STAPLES        CLEAR     10   7  85 NW10      30.30R WCI  -3
LONG PRAIRIE   MOCLDY    18   9  68 W12G20    30.31R WCI   5
LITTLE FALLS   PTCLDY    18   9  68 W10       30.31R WCI   6
LITCHFIELD     CLEAR     19  12  73 W10       30.34R WCI   8
BUFFALO        PTCLDY    21  12  68 W15G21    30.33R WCI   8
MAPLE LAKE     CLEAR     21  14  73 NW12G18   30.33R WCI   9
$$
MNZ037-044-045-052-053-020400-
   East Central Minnesota

CITY           SKY/WX    TMP DP  RH WIND       PRES   REMARKS
PRINCETON      CLOUDY    21  12  68 W15       30.30R WCI   8
MORA           MOCLDY    19  10  68 NW14      30.29R WCI   6
CAMBRIDGE      PTCLDY    21  10  63 W10G17    30.29R WCI  10
RUSH CITY      CLOUDY    18  11  74 W8        30.28R WCI   8
MOOSE LAKE     CLOUDY    19   9  63 W9G16     30.23R WCI   9
HINCKLEY       FAIR      19  10  68 W7        30.26R WCI  10
CLOQUET        CLOUDY    19   9  63 W17       30.20R WCI   4
MCGREGOR       PTCLDY    18  10  73 NW9       30.25R WCI   6
$$
MNZ071>073-080-081-089-090-097-098-020400-
   Southwest Minnesota

CITY           SKY/WX    TMP DP  RH WIND       PRES   REMARKS
MONTEVIDEO     CLEAR     18  10  73 NW7       30.39R WCI   8
GRANITE FALLS  CLEAR     16  11  83 W8        30.40R WCI   5
CANBY          CLEAR     15  11  84 W7        30.40S WCI   5
MARSHALL       CLEAR     14   7  73 NW5       30.39S WCI   6
REDWOOD FALLS  CLEAR     20  13  74 NW14G25   30.37R WCI   7
OLIVIA         CLEAR     19  12  73 W9        30.36R WCI   9
PIPESTONE      CLEAR     18  14  86 NW7       30.36R WCI   8
WINDOM         CLEAR     19  16  86 NW10      30.36R WCI   8
WORTHINGTON    CLEAR     28  10  47 NW12      30.38R WCI  18
JACKSON        CLEAR     23  14  68 NW15      30.35S WCI  10
TRACY          CLEAR     20  14  76 W7        30.38R WCI  11
SLAYTON        CLEAR     16  11  82 CALM      30.36R
$$
MNZ065>067-074>077-082>085-091>093-020400-
   South Central Minnesota

CITY           SKY/WX    TMP DP  RH WIND       PRES   REMARKS
MANKATO        CLEAR     23  12  63 W16       30.34S WCI  10
NEW ULM        CLEAR     19  12  73 W13       30.36R WCI   7
ST JAMES       CLEAR     21  16  79 W10       30.38R WCI  10
FAIRMONT       CLEAR     21  12  68 NW12      30.34S WCI   9
GLENCOE        PTCLDY    22  16  77 W17G23    30.33R WCI   8
FARIBAULT      FAIR      21  16  79 W12G18    30.32S WCI   9
OWATONNA       PTCLDY    23  16  74 W14G20    30.32R WCI  11
WASECA         CLEAR     21  16  79 W14       30.34S WCI   8
ALBERT LEA     PTCLDY    21  16  79 W9        30.32S WCI  11
$$
MNZ078>079-086>088-094>096-020400-
   Southeast Minnesota

CITY           SKY/WX    TMP DP  RH WIND       PRES   REMARKS
ROCHESTER      CLEAR     16   9  74 W13       30.29R WCI   2
RED WING       CLEAR     21  12  68 W7        30.29R WCI  13
STANTON        CLEAR     23  16  73 W10       30.30S WCI  13
DODGE CENTER   PTCLDY    21  18  86 W13G18    30.29R WCI   9
WINONA         CLEAR     23  12  63 W7        30.31S WCI  15
AUSTIN         PTCLDY    19  12  73 W8        30.31R WCI   9
PRESTON        CLEAR     18  10  71 W12       30.29S WCI   5
$$
ABBREVIATIONS USED IN REMARKS
   TC - TEMPERATURES IN CELSIUS
  WCI - WIND CHILL INDEX
   HX - HEAT INDEX
  VSB - VISIBILITY
$$


USA.gov is the U.S. government's official web portal to all federal, state and local government web resources and services.